| time (UTC) | temp F | wind direction | speed knots | gust knots | rain 1hr in | rain 24hr in | rain mn in | humidity % | barometer mb |
| 20260507171605 | 58 | 89 | 0.9 | 2.6 | 0.00 | 0.00 | 0.00 | 57 | 1016.3 |
| 20260507171104 | 58 | 82 | 0.9 | 2.6 | 0.00 | 0.00 | 0.00 | 58 | 1016.3 |
| 20260507170604 | 58 | 93 | 0.0 | 2.6 | 0.00 | 0.00 | 0.00 | 57 | 1016.3 |
| 20260507170104 | 58 | 95 | 0.9 | 2.6 | 0.00 | 0.00 | 0.00 | 56 | 1016.3 |
| 20260507165603 | 58 | 23 | 0.9 | 5.2 | 0.00 | 0.00 | 0.00 | 57 | 1016.3 |
| 20260507164104 | 59 | 95 | 1.7 | 5.2 | 0.00 | 0.00 | 0.00 | 55 | 1016.2 |
| 20260507163604 | 59 | 80 | 1.7 | 6.1 | 0.00 | 0.00 | 0.00 | 55 | 1016.2 |
| 20260507160604 | 60 | 62 | 0.0 | 2.6 | 0.00 | 0.00 | 0.00 | 56 | 1016.1 |
| 20260507160104 | 60 | 57 | 0.0 | 2.6 | 0.00 | 0.00 | 0.00 | 57 | 1016.2 |
| 20260507155604 | 59 | 30 | 0.9 | 2.6 | 0.00 | 0.00 | 0.00 | 56 | 1016.1 |
| 20260507155104 | 59 | 10 | 1.7 | 5.2 | 0.00 | 0.00 | 0.00 | 57 | 1016.2 |
| 20260507154605 | 59 | 90 | 0.0 | 1.7 | 0.00 | 0.00 | 0.00 | 57 | 1016.1 |
| 20260507154104 | 59 | 103 | 0.9 | 2.6 | 0.00 | 0.00 | 0.00 | 57 | 1016.2 |
| 20260507153604 | 59 | 67 | 0.0 | 1.7 | 0.00 | 0.00 | 0.00 | 56 | 1016.2 |
| 20260507153104 | 60 | 57 | 0.0 | 2.6 | 0.00 | 0.00 | 0.00 | 55 | 1016.2 |
| 20260507152605 | 60 | 88 | 0.0 | 2.6 | 0.00 | 0.00 | 0.00 | 55 | 1016.3 |
| 20260507152104 | 60 | 38 | 0.0 | 0.9 | 0.00 | 0.00 | 0.00 | 56 | 1016.2 |
| 20260507151604 | 60 | 335 | 0.0 | 0.9 | 0.00 | 0.00 | 0.00 | 55 | 1016.3 |
| 20260507150605 | 61 | 27 | 0.0 | 2.6 | 0.00 | 0.00 | 0.00 | 54 | 1016.3 |
| 20260507150105 | 61 | 333 | 0.0 | 2.6 | 0.00 | 0.00 | 0.00 | 53 | 1016.3 |
| 20260507145604 | 61 | 0 | 0.0 | 0.9 | 0.00 | 0.00 | 0.00 | 54 | 1016.3 |
| 20260507145103 | 61 | 17 | 0.0 | 0.9 | 0.00 | 0.00 | 0.00 | 53 | 1016.4 |
| 20260507144605 | 61 | 135 | 0.9 | 2.6 | 0.00 | 0.00 | 0.00 | 54 | 1016.4 |
| 20260507144104 | 61 | 91 | 0.9 | 4.3 | 0.00 | 0.00 | 0.00 | 53 | 1016.4 |
| 20260507143104 | 60 | 89 | 0.0 | 2.6 | 0.00 | 0.00 | 0.00 | 54 | 1016.4 |
| 20260507142605 | 60 | 70 | 0.0 | 1.7 | 0.00 | 0.00 | 0.00 | 54 | 1016.5 |
| 20260507142105 | 61 | 349 | 0.0 | 1.7 | 0.00 | 0.00 | 0.00 | 54 | 1016.6 |
| 20260507141605 | 61 | 75 | 0.0 | 2.6 | 0.00 | 0.00 | 0.00 | 53 | 1016.6 |
| 20260507141105 | 62 | 33 | 0.0 | 2.6 | 0.00 | 0.00 | 0.00 | 55 | 1016.6 |
| 20260507140106 | 61 | 330 | 0.0 | 1.7 | 0.00 | 0.00 | 0.00 | 55 | 1016.7 |
| 20260507135605 | 60 | 354 | 0.9 | 2.6 | 0.00 | 0.00 | 0.00 | 56 | 1016.8 |
| 20260507134605 | 60 | 70 | 0.0 | 4.3 | 0.00 | 0.00 | 0.00 | 55 | 1016.8 |
| 20260507134104 | 60 | 109 | 0.0 | 5.2 | 0.00 | 0.00 | 0.00 | 56 | 1016.8 |
| 20260507133604 | 60 | 111 | 0.9 | 5.2 | 0.00 | 0.00 | 0.00 | 58 | 1016.8 |
| 20260507133104 | 60 | 83 | 0.9 | 4.3 | 0.00 | 0.00 | 0.00 | 57 | 1016.8 |
| 20260507132605 | 60 | 52 | 0.0 | 2.6 | 0.00 | 0.00 | 0.00 | 57 | 1016.8 |
| 20260507132105 | 60 | 2 | 0.9 | 2.6 | 0.00 | 0.00 | 0.00 | 56 | 1016.9 |
| 20260507131605 | 60 | 346 | 0.0 | 1.7 | 0.00 | 0.00 | 0.00 | 58 | 1016.9 |
| 20260507131105 | 60 | 19 | 0.9 | 2.6 | 0.00 | 0.00 | 0.00 | 54 | 1016.9 |
| 20260507130604 | 61 | 79 | 0.9 | 2.6 | 0.00 | 0.00 | 0.00 | 54 | 1016.9 |
| 20260507130105 | 61 | 83 | 0.9 | 1.7 | 0.00 | 0.00 | 0.00 | 54 | 1016.9 |
| 20260507125605 | 61 | 67 | 0.0 | 2.6 | 0.00 | 0.00 | 0.00 | 54 | 1016.9 |
| 20260507125105 | 61 | 88 | 0.9 | 2.6 | 0.00 | 0.00 | 0.00 | 55 | 1016.9 |
| 20260507124605 | 61 | 107 | 0.9 | 4.3 | 0.00 | 0.00 | 0.00 | 54 | 1016.9 |
| 20260507124105 | 61 | 87 | 0.9 | 5.2 | 0.00 | 0.00 | 0.00 | 56 | 1017.0 |
| 20260507123604 | 60 | 73 | 0.0 | 2.6 | 0.00 | 0.00 | 0.00 | 58 | 1017.0 |
| 20260507123104 | 60 | 99 | 0.9 | 2.6 | 0.00 | 0.00 | 0.00 | 55 | 1017.0 |
| 20260507122605 | 61 | 98 | 0.0 | 5.2 | 0.00 | 0.00 | 0.00 | 56 | 1017.0 |
| 20260507122105 | 61 | 82 | 0.9 | 1.7 | 0.00 | 0.00 | 0.00 | 57 | 1017.0 |
| 20260507121605 | 60 | 262 | 0.0 | 1.7 | 0.00 | 0.00 | 0.00 | 58 | 1017.0 |
| 20260507121105 | 60 | 290 | 0.0 | 1.7 | 0.00 | 0.00 | 0.00 | 58 | 1017.1 |
| 20260507120605 | 59 | 42 | 0.0 | 1.7 | 0.00 | 0.00 | 0.00 | 60 | 1017.1 |
| 20260507115605 | 59 | 32 | 0.0 | 2.6 | 0.00 | 0.00 | 0.00 | 64 | 1017.2 |
| 20260507115105 | 58 | 12 | 0.0 | 2.6 | 0.00 | 0.00 | 0.00 | 66 | 1017.2 |
| 20260507114605 | 58 | 73 | 0.0 | 2.6 | 0.00 | 0.00 | 0.00 | 69 | 1017.2 |
| 20260507114105 | 57 | 2 | 0.0 | 2.6 | 0.00 | 0.00 | 0.00 | 69 | 1017.4 |
| 20260507113605 | 56 | 90 | 0.0 | 1.7 | 0.00 | 0.00 | 0.00 | 69 | 1017.5 |
| 20260507112106 | 55 | 94 | 0.9 | 1.7 | 0.00 | 0.00 | 0.00 | 70 | 1017.6 |
| 20260507111606 | 55 | 92 | 0.0 | 2.6 | 0.00 | 0.00 | 0.00 | 71 | 1017.7 |
| 20260507110605 | 55 | 22 | 0.0 | 1.7 | 0.00 | 0.00 | 0.00 | 71 | 1017.8 |
| 20260507110105 | 54 | 347 | 0.0 | 1.7 | 0.00 | 0.00 | 0.00 | 74 | 1017.8 |
| 20260507105605 | 54 | 61 | 0.9 | 2.6 | 0.00 | 0.00 | 0.00 | 74 | 1017.9 |
| 20260507105105 | 54 | 56 | 0.0 | 2.6 | 0.00 | 0.00 | 0.00 | 75 | 1017.9 |
| 20260507104605 | 53 | 85 | 0.0 | 1.7 | 0.00 | 0.00 | 0.00 | 75 | 1017.9 |
| 20260507104109 | 53 | 77 | 0.9 | 2.6 | 0.00 | 0.00 | 0.00 | 74 | 1018.0 |
| 20260507103605 | 53 | 94 | 0.0 | 0.9 | 0.00 | 0.00 | 0.00 | 75 | 1017.9 |
| 20260507103105 | 53 | 92 | 0.0 | 2.6 | 0.00 | 0.00 | 0.00 | 75 | 1018.0 |
| 20260507102605 | 52 | 87 | 0.0 | 2.6 | 0.00 | 0.00 | 0.00 | 76 | 1018.0 |
| 20260507101605 | 52 | 319 | 0.0 | 0.9 | 0.00 | 0.00 | 0.00 | 78 | 1018.0 |
| 20260507101105 | 52 | 88 | 0.0 | 1.7 | 0.00 | 0.00 | 0.00 | 77 | 1018.0 |
| 20260507100605 | 52 | 353 | 0.0 | 1.7 | 0.00 | 0.00 | 0.00 | 78 | 1018.0 |
| 20260507095605 | 51 | 27 | 0.0 | 1.7 | 0.00 | 0.00 | 0.00 | 78 | 1018.0 |
| 20260507095105 | 51 | 91 | 0.0 | 0.9 | 0.00 | 0.00 | 0.00 | 78 | 1018.0 |
| 20260507094605 | 51 | 85 | 0.0 | 1.7 | 0.00 | 0.00 | 0.00 | 78 | 1018.0 |
| 20260507093605 | 51 | 13 | 0.0 | 1.7 | 0.00 | 0.00 | 0.00 | 80 | 1017.8 |
| 20260507093105 | 50 | 354 | 0.0 | 0.9 | 0.00 | 0.00 | 0.00 | 80 | 1017.8 |
| 20260507092605 | 50 | 14 | 0.0 | 1.7 | 0.00 | 0.00 | 0.00 | 80 | 1017.9 |
| 20260507091605 | 50 | 16 | 0.0 | 2.6 | 0.00 | 0.00 | 0.00 | 81 | 1017.9 |
| 20260507091105 | 50 | 80 | 0.0 | 0.9 | 0.00 | 0.00 | 0.00 | 81 | 1017.9 |
| 20260507090605 | 50 | 287 | 0.0 | 0.9 | 0.00 | 0.00 | 0.00 | 82 | 1017.9 |
| 20260507085605 | 49 | 353 | 0.0 | 0.9 | 0.00 | 0.00 | 0.00 | 82 | 1017.9 |
| 20260507084605 | 49 | 76 | 0.0 | 1.7 | 0.00 | 0.00 | 0.00 | 83 | 1017.9 |
| 20260507084105 | 49 | 26 | 0.0 | 1.7 | 0.00 | 0.00 | 0.00 | 83 | 1017.9 |
| 20260507083605 | 49 | 334 | 0.0 | 1.7 | 0.00 | 0.00 | 0.00 | 83 | 1017.9 |
| 20260507083105 | 48 | 68 | 0.0 | 0.9 | 0.00 | 0.00 | 0.00 | 83 | 1017.9 |
| 20260507082605 | 48 | 97 | 0.0 | 0.9 | 0.00 | 0.00 | 0.00 | 84 | 1017.8 |
| 20260507082105 | 48 | 19 | 0.0 | 0.9 | 0.00 | 0.00 | 0.00 | 84 | 1017.9 |
| 20260507081606 | 48 | 12 | 0.0 | 1.7 | 0.00 | 0.00 | 0.00 | 85 | 1017.7 |
| 20260507081105 | 48 | 302 | 0.0 | 1.7 | 0.00 | 0.00 | 0.00 | 85 | 1017.7 |
| 20260507080105 | 47 | 347 | 0.0 | 1.7 | 0.00 | 0.00 | 0.00 | 85 | 1017.7 |
| 20260507075605 | 47 | 293 | 0.0 | 0.9 | 0.00 | 0.00 | 0.00 | 86 | 1017.7 |
| 20260507075105 | 47 | 42 | 0.0 | 0.0 | 0.00 | 0.00 | 0.00 | 86 | 1017.7 |
| 20260507074605 | 47 | 72 | 0.0 | 0.9 | 0.00 | 0.00 | 0.00 | 87 | 1017.7 |
| 20260507074105 | 47 | 31 | 0.0 | 0.9 | 0.00 | 0.00 | 0.00 | 87 | 1017.8 |
| 20260507073605 | 46 | 90 | 0.0 | 0.9 | 0.00 | 0.00 | 0.00 | 87 | 1017.8 |
| 20260507073105 | 46 | 104 | 0.0 | 0.9 | 0.00 | 0.00 | 0.00 | 87 | 1017.8 |
| 20260507072605 | 46 | 83 | 0.0 | 0.9 | 0.00 | 0.00 | 0.00 | 87 | 1017.8 |
| 20260507071605 | 46 | 349 | 0.0 | 0.9 | 0.00 | 0.00 | 0.00 | 88 | 1017.7 |
| 20260507071105 | 46 | 60 | 0.0 | 1.7 | 0.00 | 0.00 | 0.00 | 88 | 1017.7 |
| 20260507070605 | 45 | 89 | 0.0 | 1.7 | 0.00 | 0.00 | 0.00 | 88 | 1017.7 |
| 20260507070106 | 45 | 321 | 0.0 | 2.6 | 0.00 | 0.00 | 0.00 | 89 | 1017.7 |
| 20260507065604 | 45 | 114 | 0.0 | 0.9 | 0.00 | 0.00 | 0.00 | 89 | 1017.7 |
| 20260507064606 | 45 | 320 | 0.0 | 0.9 | 0.00 | 0.00 | 0.00 | 90 | 1017.7 |
| 20260507064105 | 44 | 61 | 0.0 | 1.7 | 0.00 | 0.00 | 0.00 | 90 | 1017.7 |
| 20260507063605 | 44 | 13 | 0.9 | 2.6 | 0.00 | 0.00 | 0.00 | 90 | 1017.7 |
| 20260507062105 | 44 | 127 | 0.0 | 2.6 | 0.00 | 0.00 | 0.00 | 91 | 1017.6 |
| 20260507061605 | 44 | 58 | 0.0 | 0.9 | 0.00 | 0.00 | 0.00 | 91 | 1017.6 |
| 20260507061105 | 43 | 128 | 0.0 | 0.9 | 0.00 | 0.00 | 0.00 | 92 | 1017.6 |
| 20260507060605 | 43 | 86 | 0.0 | 0.9 | 0.00 | 0.00 | 0.00 | 92 | 1017.6 |
| 20260507055105 | 43 | 216 | 0.0 | 1.7 | 0.00 | 0.00 | 0.00 | 92 | 1017.5 |
| 20260507053606 | 42 | 100 | 0.0 | 0.9 | 0.00 | 0.00 | 0.00 | 92 | 1017.3 |
| 20260507052606 | 42 | 14 | 0.0 | 0.9 | 0.00 | 0.00 | 0.00 | 92 | 1017.4 |
| 20260507052106 | 42 | 17 | 0.0 | 2.6 | 0.00 | 0.00 | 0.00 | 92 | 1017.4 |
| 20260507051606 | 42 | 329 | 0.0 | 0.0 | 0.00 | 0.00 | 0.00 | 92 | 1017.5 |
| 20260507051105 | 42 | 350 | 0.0 | 1.7 | 0.00 | 0.00 | 0.00 | 93 | 1017.5 |
| 20260507050605 | 42 | 65 | 0.0 | 0.0 | 0.00 | 0.00 | 0.00 | 92 | 1017.6 |
| 20260507050106 | 42 | 87 | 0.0 | 0.9 | 0.00 | 0.00 | 0.00 | 93 | 1017.6 |
| 20260507045606 | 42 | 269 | 0.0 | 1.7 | 0.00 | 0.00 | 0.00 | 93 | 1017.7 |
| 20260507045105 | 42 | 78 | 0.0 | 0.9 | 0.00 | 0.00 | 0.00 | 92 | 1017.7 |
| 20260507044605 | 42 | 34 | 0.0 | 0.9 | 0.00 | 0.00 | 0.00 | 92 | 1017.6 |
| 20260507044105 | 42 | 340 | 0.0 | 0.9 | 0.00 | 0.00 | 0.00 | 92 | 1017.6 |
| 20260507043605 | 42 | 316 | 0.0 | 0.0 | 0.00 | 0.00 | 0.00 | 92 | 1017.6 |
| 20260507042605 | 42 | 75 | 0.0 | 0.9 | 0.00 | 0.00 | 0.00 | 92 | 1017.5 |
| 20260507042106 | 42 | 96 | 0.0 | 0.0 | 0.00 | 0.00 | 0.00 | 92 | 1017.5 |
| 20260507041606 | 42 | 96 | 0.0 | 0.9 | 0.00 | 0.00 | 0.00 | 92 | 1017.4 |
| 20260507041106 | 42 | 72 | 0.0 | 0.0 | 0.00 | 0.00 | 0.00 | 92 | 1017.4 |
| 20260507040605 | 42 | 50 | 0.0 | 0.9 | 0.00 | 0.00 | 0.00 | 92 | 1017.5 |
| 20260507040106 | 42 | 53 | 0.0 | 0.0 | 0.00 | 0.00 | 0.00 | 92 | 1017.5 |
| 20260507035605 | 42 | 53 | 0.0 | 0.0 | 0.00 | 0.00 | 0.00 | 92 | 1017.5 |
| 20260507035105 | 42 | 53 | 0.0 | 0.0 | 0.00 | 0.00 | 0.00 | 92 | 1017.4 |
| 20260507034605 | 41 | 26 | 0.0 | 0.0 | 0.00 | 0.00 | 0.00 | 92 | 1017.4 |
| 20260507034106 | 41 | 307 | 0.0 | 0.9 | 0.00 | 0.00 | 0.00 | 92 | 1017.3 |
| 20260507033605 | 41 | 124 | 0.0 | 0.9 | 0.00 | 0.00 | 0.00 | 92 | 1017.2 |
| 20260507033106 | 41 | 70 | 0.0 | 0.9 | 0.00 | 0.00 | 0.00 | 92 | 1017.3 |
| 20260507032606 | 41 | 320 | 0.0 | 0.0 | 0.00 | 0.00 | 0.00 | 91 | 1017.2 |
| 20260507032105 | 42 | 320 | 0.0 | 0.9 | 0.00 | 0.00 | 0.00 | 91 | 1017.3 |
| 20260507031606 | 42 | 297 | 0.0 | 0.9 | 0.00 | 0.00 | 0.00 | 91 | 1017.3 |
| 20260507031105 | 42 | 279 | 0.0 | 0.9 | 0.00 | 0.00 | 0.00 | 91 | 1017.4 |
| 20260507030605 | 42 | 279 | 0.0 | 0.0 | 0.00 | 0.00 | 0.00 | 91 | 1017.5 |
| 20260507030106 | 42 | 279 | 0.0 | 0.0 | 0.00 | 0.00 | 0.00 | 91 | 1017.5 |
| 20260507025106 | 42 | 279 | 0.0 | 0.9 | 0.00 | 0.00 | 0.00 | 91 | 1017.5 |
| 20260507024606 | 42 | 75 | 0.0 | 0.9 | 0.00 | 0.00 | 0.00 | 90 | 1017.4 |
| 20260507023606 | 42 | 1 | 0.0 | 0.9 | 0.00 | 0.00 | 0.00 | 90 | 1017.3 |
| 20260507022607 | 42 | 73 | 0.0 | 0.0 | 0.00 | 0.00 | 0.00 | 90 | 1017.4 |
| 20260507021606 | 43 | 73 | 0.0 | 0.0 | 0.00 | 0.00 | 0.00 | 90 | 1017.5 |
| 20260507021105 | 43 | 76 | 0.0 | 0.0 | 0.00 | 0.00 | 0.00 | 89 | 1017.5 |
| 20260507020606 | 43 | 76 | 0.0 | 0.9 | 0.00 | 0.00 | 0.00 | 89 | 1017.5 |
| 20260507015106 | 43 | 343 | 0.0 | 0.0 | 0.00 | 0.00 | 0.00 | 89 | 1017.4 |
| 20260507014605 | 43 | 209 | 0.0 | 0.0 | 0.00 | 0.00 | 0.00 | 89 | 1017.3 |
| 20260507014106 | 43 | 298 | 0.0 | 0.0 | 0.00 | 0.00 | 0.00 | 89 | 1017.3 |
| 20260507013105 | 43 | 170 | 0.0 | 0.9 | 0.00 | 0.00 | 0.00 | 89 | 1017.4 |
| 20260507012106 | 43 | 6 | 0.0 | 0.9 | 0.00 | 0.00 | 0.00 | 89 | 1017.4 |
| 20260507011606 | 43 | 12 | 0.0 | 0.9 | 0.00 | 0.00 | 0.00 | 89 | 1017.4 |
| 20260507010606 | 43 | 35 | 0.0 | 1.7 | 0.00 | 0.00 | 0.00 | 89 | 1017.4 |
| 20260507010106 | 43 | 302 | 0.0 | 0.9 | 0.00 | 0.00 | 0.00 | 89 | 1017.4 |
| 20260507005606 | 43 | 329 | 0.0 | 0.9 | 0.00 | 0.00 | 0.00 | 89 | 1017.3 |
| 20260507005106 | 43 | 332 | 0.0 | 0.9 | 0.00 | 0.00 | 0.00 | 89 | 1017.3 |
| 20260507004106 | 43 | 45 | 0.0 | 2.6 | 0.00 | 0.00 | 0.00 | 89 | 1017.3 |
| 20260507003606 | 43 | 314 | 0.0 | 1.7 | 0.00 | 0.00 | 0.00 | 89 | 1017.3 |
| 20260507003106 | 43 | 308 | 0.0 | 0.9 | 0.00 | 0.00 | 0.00 | 89 | 1017.3 |
| 20260507002606 | 43 | 33 | 0.0 | 1.7 | 0.00 | 0.00 | 0.00 | 89 | 1017.4 |
| 20260507002106 | 43 | 304 | 0.0 | 1.7 | 0.00 | 0.00 | 0.00 | 89 | 1017.4 |
| 20260507001606 | 43 | 0 | 0.0 | 0.9 | 0.00 | 0.00 | 0.00 | 88 | 1017.4 |
| 20260507001106 | 43 | 45 | 0.0 | 1.7 | 0.00 | 0.00 | 0.00 | 88 | 1017.5 |
| 20260507000106 | 43 | 344 | 0.0 | 0.9 | 0.00 | 0.00 | 0.00 | 88 | 1017.6 |
| 20260506235605 | 43 | 329 | 0.0 | 0.9 | 0.00 | 0.00 | 0.00 | 88 | 1017.7 |
| 20260506235105 | 43 | 28 | 0.0 | 0.9 | 0.00 | 0.00 | 0.00 | 88 | 1017.6 |
| 20260506234606 | 43 | 302 | 0.0 | 1.7 | 0.00 | 0.00 | 0.00 | 88 | 1017.6 |
| 20260506234107 | 43 | 145 | 0.0 | 0.9 | 0.00 | 0.00 | 0.00 | 88 | 1017.6 |
| 20260506233606 | 43 | 231 | 0.0 | 0.9 | 0.00 | 0.00 | 0.00 | 88 | 1017.7 |
| 20260506233106 | 43 | 297 | 0.0 | 0.9 | 0.00 | 0.00 | 0.00 | 88 | 1017.6 |
| 20260506232606 | 43 | 348 | 0.0 | 0.9 | 0.00 | 0.00 | 0.00 | 88 | 1017.6 |
| 20260506232106 | 43 | 308 | 0.0 | 0.9 | 0.00 | 0.00 | 0.00 | 88 | 1017.6 |
| 20260506231606 | 43 | 62 | 0.0 | 0.9 | 0.00 | 0.00 | 0.00 | 88 | 1017.5 |
| 20260506231106 | 43 | 300 | 0.0 | 0.9 | 0.00 | 0.00 | 0.00 | 88 | 1017.5 |
| 20260506230604 | 43 | 3 | 0.0 | 0.9 | 0.00 | 0.00 | 0.00 | 88 | 1017.5 |
| 20260506230106 | 43 | 285 | 0.0 | 0.9 | 0.00 | 0.00 | 0.00 | 88 | 1017.6 |
| 20260506225606 | 43 | 294 | 0.0 | 0.9 | 0.00 | 0.00 | 0.00 | 88 | 1017.5 |
| 20260506225105 | 43 | 319 | 0.0 | 0.0 | 0.00 | 0.00 | 0.00 | 88 | 1017.6 |
| 20260506224605 | 43 | 313 | 0.0 | 0.9 | 0.00 | 0.00 | 0.00 | 88 | 1017.6 |
| 20260506223604 | 43 | 308 | 0.0 | 0.9 | 0.00 | 0.00 | 0.00 | 87 | 1017.7 |
| 20260506223104 | 43 | 352 | 0.0 | 2.6 | 0.00 | 0.00 | 0.00 | 87 | 1017.7 |
| 20260506222604 | 43 | 22 | 0.0 | 1.7 | 0.00 | 0.00 | 0.00 | 87 | 1017.6 |
| 20260506222105 | 43 | 275 | 0.0 | 0.9 | 0.00 | 0.00 | 0.00 | 87 | 1017.6 |
| 20260506221105 | 44 | 91 | 0.0 | 0.0 | 0.00 | 0.00 | 0.00 | 86 | 1017.5 |
| 20260506220604 | 44 | 89 | 0.0 | 0.9 | 0.00 | 0.00 | 0.00 | 86 | 1017.5 |
| 20260506220105 | 44 | 105 | 0.0 | 1.7 | 0.00 | 0.00 | 0.00 | 86 | 1017.5 |
| 20260506215605 | 44 | 56 | 0.0 | 2.6 | 0.00 | 0.00 | 0.00 | 86 | 1017.4 |
| 20260506215105 | 44 | 285 | 0.0 | 0.9 | 0.00 | 0.00 | 0.00 | 85 | 1017.5 |
| 20260506214605 | 44 | 104 | 0.0 | 0.9 | 0.00 | 0.00 | 0.00 | 85 | 1017.5 |
| 20260506214105 | 44 | 75 | 0.0 | 0.9 | 0.00 | 0.00 | 0.00 | 85 | 1017.4 |
| 20260506213605 | 45 | 69 | 0.0 | 0.9 | 0.00 | 0.00 | 0.00 | 84 | 1017.4 |
| 20260506213104 | 45 | 47 | 0.0 | 0.9 | 0.00 | 0.00 | 0.00 | 84 | 1017.3 |
| 20260506212605 | 45 | 333 | 0.0 | 1.7 | 0.00 | 0.00 | 0.00 | 84 | 1017.4 |
| 20260506212104 | 45 | 59 | 0.0 | 0.9 | 0.00 | 0.00 | 0.00 | 84 | 1017.4 |
| 20260506211605 | 45 | 324 | 0.0 | 0.9 | 0.00 | 0.00 | 0.00 | 83 | 1017.4 |
| 20260506211104 | 45 | 316 | 0.0 | 0.9 | 0.00 | 0.00 | 0.00 | 83 | 1017.4 |
| 20260506210105 | 45 | 343 | 0.0 | 1.7 | 0.00 | 0.00 | 0.00 | 82 | 1017.2 |
| 20260506205605 | 46 | 290 | 0.0 | 1.7 | 0.00 | 0.00 | 0.00 | 82 | 1017.2 |
| 20260506205104 | 46 | 66 | 0.0 | 1.7 | 0.00 | 0.00 | 0.00 | 82 | 1017.2 |
| 20260506204604 | 46 | 14 | 0.0 | 1.7 | 0.00 | 0.00 | 0.00 | 82 | 1017.1 |
| 20260506204104 | 46 | 96 | 0.0 | 1.7 | 0.00 | 0.00 | 0.00 | 81 | 1017.1 |
| 20260506203604 | 46 | 209 | 0.0 | 0.9 | 0.00 | 0.00 | 0.00 | 81 | 1017.0 |
| 20260506203105 | 46 | 295 | 0.0 | 0.9 | 0.00 | 0.00 | 0.00 | 80 | 1017.0 |
| 20260506202605 | 46 | 136 | 0.0 | 0.0 | 0.00 | 0.00 | 0.00 | 79 | 1016.9 |
| 20260506202104 | 47 | 282 | 0.0 | 0.9 | 0.00 | 0.00 | 0.00 | 79 | 1016.9 |
| 20260506201605 | 47 | 332 | 0.0 | 1.7 | 0.00 | 0.00 | 0.00 | 79 | 1016.9 |
| 20260506201104 | 47 | 48 | 0.0 | 0.9 | 0.00 | 0.00 | 0.00 | 78 | 1016.8 |
| 20260506200604 | 47 | 15 | 0.0 | 0.9 | 0.00 | 0.00 | 0.00 | 78 | 1016.8 |
| 20260506195604 | 47 | 15 | 0.0 | 2.6 | 0.00 | 0.00 | 0.00 | 76 | 1016.7 |
| 20260506195104 | 48 | 13 | 0.0 | 0.9 | 0.00 | 0.00 | 0.00 | 76 | 1016.6 |
| 20260506194604 | 48 | 328 | 0.0 | 1.7 | 0.00 | 0.00 | 0.00 | 75 | 1016.6 |
| 20260506193604 | 48 | 65 | 0.0 | 1.7 | 0.00 | 0.00 | 0.00 | 76 | 1016.4 |
| 20260506193104 | 49 | 250 | 0.0 | 2.6 | 0.00 | 0.00 | 0.00 | 76 | 1016.3 |
| 20260506192604 | 49 | 351 | 0.0 | 1.7 | 0.00 | 0.00 | 0.00 | 75 | 1016.3 |
| 20260506192104 | 49 | 30 | 0.0 | 1.7 | 0.00 | 0.00 | 0.00 | 75 | 1016.3 |
| 20260506191605 | 49 | 148 | 0.0 | 1.7 | 0.00 | 0.00 | 0.00 | 74 | 1016.3 |
| 20260506190605 | 50 | 3 | 0.0 | 0.9 | 0.00 | 0.00 | 0.00 | 73 | 1016.2 |
| 20260506190104 | 50 | 68 | 0.0 | 2.6 | 0.00 | 0.00 | 0.00 | 73 | 1016.3 |
| 20260506185604 | 51 | 268 | 0.0 | 1.7 | 0.00 | 0.00 | 0.00 | 72 | 1016.2 |
| 20260506185105 | 51 | 30 | 0.0 | 2.6 | 0.00 | 0.00 | 0.00 | 71 | 1016.3 |
| 20260506184604 | 51 | 94 | 0.0 | 2.6 | 0.00 | 0.00 | 0.00 | 71 | 1016.3 |
| 20260506184104 | 51 | 83 | 0.0 | 1.7 | 0.00 | 0.00 | 0.00 | 71 | 1016.3 |
| 20260506183604 | 52 | 238 | 0.0 | 2.6 | 0.00 | 0.00 | 0.00 | 70 | 1016.2 |
| 20260506182604 | 52 | 264 | 0.0 | 2.6 | 0.00 | 0.00 | 0.00 | 69 | 1016.2 |
| 20260506182105 | 52 | 315 | 0.9 | 2.6 | 0.00 | 0.00 | 0.00 | 69 | 1016.2 |
| 20260506181604 | 52 | 267 | 0.9 | 1.7 | 0.00 | 0.00 | 0.00 | 68 | 1016.2 |
| 20260506181104 | 52 | 270 | 0.0 | 0.9 | 0.00 | 0.00 | 0.00 | 69 | 1016.2 |
| 20260506180604 | 52 | 250 | 0.9 | 2.6 | 0.00 | 0.00 | 0.00 | 69 | 1016.2 |
| 20260506180104 | 52 | 282 | 0.0 | 2.6 | 0.00 | 0.00 | 0.00 | 68 | 1016.2 |
| 20260506175604 | 52 | 275 | 0.9 | 2.6 | 0.00 | 0.00 | 0.00 | 67 | 1016.0 |
| 20260506175104 | 53 | 246 | 0.9 | 1.7 | 0.00 | 0.00 | 0.00 | 67 | 1016.0 |
| 20260506174605 | 53 | 177 | 0.9 | 1.7 | 0.00 | 0.00 | 0.00 | 67 | 1016.1 |
| 20260506174105 | 53 | 277 | 0.9 | 2.6 | 0.00 | 0.00 | 0.00 | 64 | 1015.9 |
| 20260506173605 | 53 | 274 | 0.9 | 2.6 | 0.00 | 0.00 | 0.00 | 62 | 1015.9 |
| 20260506173105 | 54 | 266 | 0.9 | 4.3 | 0.00 | 0.00 | 0.00 | 62 | 1015.9 |
| 20260506172604 | 54 | 292 | 0.0 | 2.6 | 0.00 | 0.00 | 0.00 | 61 | 1015.8 |
| 20260506172105 | 54 | 271 | 0.9 | 2.6 | 0.00 | 0.00 | 0.00 | 61 | 1015.8 |